Tracking 29892 objects as of 21-Nov-2024
HD Live streaming from Space Station
objects crossing your sky now

SL-16 DEB

Track SL-16 DEB now!
10-day predictions


NORAD ID: 22433
Int'l Code: 1992-093EA
Perigee: 594.3 km
Apogee: 654.3 km
Inclination: 71.1 °
Period: 97.0 minutes
Semi major axis: 6995 km
RCS: 0.0278 m2 (small)
Launch date: December 25, 1992
Source: Commonwealth of Independent States (former USSR) (CIS)
Launch site: TYURATAM MISSILE AND SPACE COMPLEX (TTMTR)

Note: This is SATELLITE DEBRIS
Your satellite tracking list
Your tracking list is empty




NASA's NSSDC Master Catalog

Two Line Element Set (TLE):
1 22433U 92093EA  24325.91445861  .00059210  00000-0  69616-2 0  9998
2 22433  71.1408 140.9782 0042916  70.3830 290.1955 14.83865716654028
Source of the keplerian elements: AFSPC